Terug naar catalogus

TIANQI XINGZUO 1-02

ActiefCommunicatieVLEO
NORAD 44311·PAYLOAD·🇨🇳 China
Deze satellietnaam is nog niet bevestigd door officiële bronnen.

Gelanceerd Jun 5, 2019 vanaf Yellow Sea Launch Area

Loading…

Volgende Passages (komende 24 uur)

TLE

VersSource: Space-Track

Epoch: Sep 14, 2026, 10:15 UTC

1 44311U 19032B   26257.42710433  .00007868  00000-0  28023-3 0  9991
2 44311  44.9712 241.9482 0025115 126.0756 234.2458 15.29216588401407

Volg TIANQI XINGZUO 1-02 in realtime met AllMySat

Download on the App Store